User: anonymous   Login
Location: Caltech
(34.1382°N, 118.1253°W)
Time: 21:53:40
(UTC-08:00)
Language:

Cosmos 2360 Rocket - Orbit

View from above orbital plane
View from above orbital plane
View from above satellite
View from above satellite

Ground track
Ground track

The orbit data is extracted from the following two-line orbital elements,

1 25407U 98045B   17017.16213087 -.00000205  00000-0 -80089-4 0  9996
2 25407  71.0105 358.8042 0005401  71.7620 288.4091 14.15758057954808
Epoch (UTC): 17 January 2017 03:53:28
Eccentricity: 0.0005401
inclination: 71.0105°
perigee height: 836 km
apogee height: 843 km
right ascension of ascending node: 358.8042°
argument of perigee: 71.7620°
revolutions per day: 14.15758057
mean anomaly at epoch: 288.4091°
orbit number at epoch: 95480

The dashed part of the orbit path shows where the satellite is in the earth's shadow,  

DLR